Find NNS 30040

NORAD ID: 1420 Int'l Des: 1965-048 Owner: BUWEPS Country: US operational
LEOCIRCULARPOLAR

Current View

Loading 3D Globe...

About NNS 30040

Description loading...

Upcoming Passes

Passes for default location (London). Set your location on the main map for personalized predictions.

Altitude History

Loading altitude history...

Two-Line Element Set

1 1420U 65048A 26159.78686669 .00000104 00000-0 14085-3 0 9995
2 1420 89.8782 286.2937 0075473 95.5255 18.4727 13.51906280 2326
Epoch: Jun 8, 2026 • Age: 5 hours

Current Status

Altitude 1025.5 km
Velocity 7.37 km/s
Sub-Earth Point 56.01°N, 155.2°W
Type other

Most Searched